Regional Weather Roundup
Issued by NWS State College, PA

Home | Current Version | Previous Version | Graphics & Text | Print | Product List | Glossary Off
Versions: 1 2 3 4 5 6 7 8 9 10 11 12 13 14 15 16 17 18 19 20 21 22 23 24 25 26 27 28 29 30 31 32 33 34 35 36 37 38 39 40 41 42 43 44 45 46 47 48 49 50

000
ASUS41 KCTP 220410
RWRCTP

REGIONAL WEATHER ROUNDUP
NATIONAL WEATHER SERVICE STATE COLLEGE PA
1200 AM EDT TUE JUL 22 2014

Note: "fair" indicates few or no clouds below 12,000 feet with no
significant weather and/or obstructions to visibility.

* = STATION THAT DOES NOT REPORT PRECIPITATION /E.G. RAIN...SNOW...ETC/
    THUNDER OR FOG.

PAZ002>004-007>009-013>016-020>023-029>032-220500-
WESTERN PENNSYLVANIA

CITY           SKY/WX    TMP DP  RH WIND       PRES   REMARKS
ERIE           CLEAR     68  61  78 CALM      30.13F
MEADVILLE      CLEAR     67  62  84 CALM      30.17S
FRANKLIN*      CLEAR     68  63  83 NE3       30.18S
NEW CASTLE       N/A     67  66  96 CALM      30.15S
BEAVER COUNTY  NOT AVBL
BUTLER*        MOCLDY    70  66  88 NE3       30.17R
PITTSBURGH INT CLEAR     75  68  78 CALM      30.14S
PITTSBURGH     CLEAR     74  68  81 SE3       30.14S
INDIANA*       CLOUDY    72  68  88 S6G13     30.21S
LATROBE        PTCLDY    75  70  83 CALM      30.16S
WASHINGTON CO* MOCLDY    66  66 100 CALM      30.15S VSB 3/4
$$

PAZ004>006-010>012-017>019-024>028-033>037-041-042-045-046-049>053-220500-
CENTRAL PENNSYLVANIA

CITY           SKY/WX    TMP DP  RH WIND       PRES   REMARKS
BRADFORD       PTCLDY    66  64  93 CALM      30.20F FOG
DUBOIS         PTCLDY    71  67  87 SE6       30.18S
CLEARFIELD     CLEAR     68  67  96 CALM      30.19S
JOHNSTOWN      CLEAR     68  65  90 S10       30.22S
ALTOONA        PTCLDY    69  66  90 CALM      30.20S
STATE COLLEGE  CLEAR     69  66  90 W6        30.18S
WILLIAMSPORT   PTCLDY    69  65  86 N3        30.16R
SELINSGROVE    CLEAR     66  65  96 CALM      30.17S FOG
FT INDIANTOWN  CLEAR     68  68 100 CALM      30.18S
CAPITAL CITY   MOCLDY    71  64  78 CALM      30.17S
HARRISBURG     MOCLDY    73  66  78 CALM      30.17R
YORK           CLEAR     72  65  78 S6        30.18S
$$

PAZ038>040-043-044-047-048-054-055-060>062-067>071-220500-
EASTERN PENNSYLVANIA

CITY           SKY/WX    TMP DP  RH WIND       PRES   REMARKS
SCRANTON       CLEAR     71  63  75 CALM      30.18S
MOUNT POCONO   CLEAR     65  61  87 W7        30.22F
ALLENTOWN      CLEAR     68  63  84 CALM      30.17S
QUAKERTOWN*    CLEAR     68  66  94 CALM      30.20R
READING        CLEAR     71  65  81 CALM      30.16S
LANCASTER      CLEAR     70  64  81 CALM      30.17S
COATESVILLE    CLEAR     68  63  83 CALM      30.20S
POTTSTOWN      CLEAR     70  62  76 CALM      30.20R
BLUE BELL      CLEAR     68  63  83 CALM      30.18S
DOYLESTOWN     CLEAR     70  62  76 S5        30.18S
WILLOW GROVE   NOT AVBL
NORTH PHILA    CLEAR     73  60  63 CALM      30.19F
PHILADELPHIA   CLEAR     73  59  61 SW6       30.18F
$$


USA.gov is the U.S. government's official web portal to all federal, state and local government web resources and services.